TITAN 3C TRANSTAGE DEB, 38691

Orbit data source: Space-Track

TITAN 3C TRANSTAGE DEB, 38691 is space debris in GEO originally from a launch on Thu, 26 Sep 1968 UTC launched from the Air Force Eastern Test Range (AFETR). Debris objects in space refer to the collection of defunct objects orbiting the Earth. Examples of debris include non-operational satellites, rocket bodies, and fragments generated from explosions, collisions, or faulty payload assembly.

Not visible in the next 10 days
Identifier
38691, 1968-081R
Orbit
GEO
Country
Flag of USUS
Related business
Manufacturer
Unknown
Mission
Spacecraft
Bus & Motor
Unknown
Mass
Unknown
Launch date (UTC)
1968-09-26 (57 years ago)
Launch vehicle
Unknown
Launch site
Air Force Eastern Test Range (AFETR)
Object type
Payload
Rocket body
Debris
Shape & HBR
Unknown shape, 1.1 m
Radar Cross Section
Small (<0.1 m²)

Expand to show TLE details & history
Last TLE update: 1 day ago

TLE from 1 day ago
0 TITAN 3C TRANSTAGE DEB
1 38691U 68081R   25347.44053421 -.00000096  00000-0  00000-0 0  9990
2 38691   2.0377  43.8345 0198437 261.9480  95.3208  1.00703059 49495
Epoch: 2025-12-13T10:34Z
TLE epoch observation values (Epoch: 2025-12-13T10:34:22.155Z)
Latitude
-0°
Longitude
162.39294°
Altitude
35,762.568 km
Speed
3.072 km/s
True Right ascension
02h 53m 24s
True Declination
0° 00' 00"
Sunlit
Object was in daylight at epoch
Visualization orbit readout
Latitude
Unknown
Longitude
Unknown
Altitude
Unknown
Speed
Unknown
Apparent Right ascension
Unknown
Apparent Declination
Unknown
Sunlit
N/A
Visualization observer readout
Local Sidereal Time
13:24:33
Azimuth
Unknown
Elevation
Unknown
Doppler factor
Unknown
Orbital elements
Apogee altitude
36,501.532 km
Perigee altitude
34,832.862 km
Semi-major axis
42,045.334 km
Eccentricity
0.01984
Inclination
2.0377°
RAAN
43.8345°
Arg. of periapsis
261.948°
True anomaly
97.57914°
Mean anomaly
95.3208°
Eccentric anomaly
96.45056°
Mean motion
0.25175 °/min
Orbital period
1,430 mins
BSTAR
0
Loading maneuver chart data...
Computing Atmospheric mass density...

Documentation

Showing up to 5 results
|